TimeCDT,TemperatureF,Dew PointF,Humidity,Sea Level PressureIn,VisibilityMPH,Wind Direction,Wind SpeedMPH,Gust SpeedMPH,PrecipitationIn,Events,Conditions,WindDirDegrees,DateUTC
12:53 AM,59.0,57.0,93,29.79,10.0,NNE,3.5,-,N/A,,Clear,20,2013-10-03 05:53:00
1:03 AM,59.0,57.2,94,29.81,10.0,NE,4.6,-,N/A,,Scattered Clouds,40,2013-10-03 06:03:00
1:11 AM,60.8,59.0,94,29.81,10.0,NE,3.5,-,N/A,,Mostly Cloudy,50,2013-10-03 06:11:00
1:39 AM,60.8,57.2,88,29.83,10.0,Calm,Calm,-,N/A,,Scattered Clouds,0,2013-10-03 06:39:00
1:53 AM,59.0,57.9,96,29.81,10.0,Calm,Calm,-,N/A,,Clear,0,2013-10-03 06:53:00
2:53 AM,59.0,57.0,93,29.80,10.0,ENE,3.5,-,N/A,,Mostly Cloudy,70,2013-10-03 07:53:00
3:30 AM,59.0,57.2,94,29.81,10.0,NNE,4.6,-,N/A,,Mostly Cloudy,30,2013-10-03 08:30:00
3:53 AM,59.0,57.0,93,29.79,10.0,NNE,4.6,-,N/A,,Overcast,30,2013-10-03 08:53:00
4:53 AM,59.0,57.0,93,29.78,10.0,ENE,3.5,-,N/A,,Overcast,60,2013-10-03 09:53:00
5:53 AM,59.0,57.0,93,29.77,10.0,ENE,3.5,-,N/A,,Overcast,60,2013-10-03 10:53:00
6:53 AM,59.0,57.0,93,29.77,10.0,ENE,5.8,-,N/A,,Overcast,70,2013-10-03 11:53:00
7:00 AM,59.0,57.2,94,29.79,10.0,East,4.6,-,N/A,,Overcast,80,2013-10-03 12:00:00
7:53 AM,59.0,57.0,93,29.77,10.0,East,4.6,-,N/A,,Overcast,100,2013-10-03 12:53:00
8:53 AM,59.0,57.0,93,29.77,10.0,ESE,6.9,-,N/A,,Overcast,120,2013-10-03 13:53:00
9:53 AM,60.1,57.9,93,29.79,9.0,Calm,Calm,-,N/A,,Overcast,0,2013-10-03 14:53:00
10:53 AM,57.0,55.0,93,29.80,9.0,North,5.8,-,N/A,,Overcast,360,2013-10-03 15:53:00
11:53 AM,55.9,54.0,93,29.81,10.0,North,11.5,-,0.00,Rain,Light Rain,350,2013-10-03 16:53:00
12:53 PM,52.0,51.1,97,29.83,5.0,North,13.8,-,0.01,Rain,Light Rain,350,2013-10-03 17:53:00
1:53 PM,53.1,51.1,93,29.81,8.0,NNE,15.0,21.9,0.00,,Overcast,20,2013-10-03 18:53:00
2:53 PM,54.0,52.0,93,29.80,9.0,NNE,15.0,-,N/A,,Overcast,30,2013-10-03 19:53:00
3:48 PM,55.4,51.8,88,29.80,10.0,NE,9.2,17.3,0.00,Rain,Light Rain,50,2013-10-03 20:48:00
3:53 PM,55.0,52.0,89,29.80,10.0,NE,9.2,17.3,0.00,Rain,Light Rain,40,2013-10-03 20:53:00
4:38 PM,55.4,53.6,94,29.80,10.0,ENE,6.9,-,0.00,,Overcast,60,2013-10-03 21:38:00
4:50 PM,57.2,53.6,88,29.79,10.0,ENE,4.6,-,0.00,Rain,Light Rain,60,2013-10-03 21:50:00
4:53 PM,57.0,54.0,89,29.79,10.0,Variable,4.6,-,0.00,Rain,Light Rain,0,2013-10-03 21:53:00
5:53 PM,57.9,55.9,93,29.79,7.0,ENE,5.8,-,0.00,Rain,Light Rain,60,2013-10-03 22:53:00
6:23 PM,57.2,55.4,94,29.79,10.0,NE,4.6,-,0.00,,Overcast,50,2013-10-03 23:23:00
6:36 PM,59.0,55.4,88,29.78,10.0,NNE,6.9,-,0.00,,Overcast,30,2013-10-03 23:36:00
6:53 PM,59.0,55.9,90,29.78,10.0,East,5.8,-,0.00,,Overcast,100,2013-10-03 23:53:00
7:53 PM,59.0,55.9,90,29.79,10.0,ENE,4.6,-,N/A,,Overcast,60,2013-10-04 00:53:00
8:53 PM,59.0,55.9,90,29.79,10.0,NNE,9.2,-,N/A,,Overcast,30,2013-10-04 01:53:00
9:42 PM,59.0,55.4,88,29.81,10.0,North,8.1,-,N/A,,Overcast,10,2013-10-04 02:42:00
9:51 PM,57.2,55.4,94,29.81,10.0,NNE,9.2,-,N/A,,Overcast,20,2013-10-04 02:51:00
9:53 PM,57.9,55.0,90,29.81,10.0,North,10.4,-,N/A,,Overcast,10,2013-10-04 02:53:00
10:22 PM,57.2,53.6,88,29.80,10.0,NNE,9.2,-,N/A,,Overcast,30,2013-10-04 03:22:00
10:37 PM,55.4,53.6,94,29.79,10.0,North,6.9,-,N/A,,Overcast,360,2013-10-04 03:37:00
11:53 PM,55.9,55.0,97,29.78,6.0,NNE,8.1,-,N/A,,Overcast,30,2013-10-04 04:53:00